Onweer radar Meer informatie blitzortung!


Regen radar Meer informatie rain snow radar


Bezoek onze andere website:

Template documentation
and downloads

And another site



15 daagse weersverwachting Ansfelden (AT)

  • Overzicht
  • Per uur
  • 15 dagen
  • Extra
  • Vergelijk
  • Kaarten
  • Dagkaart
  • Meer »
  • Info
  • Statistieken
  • Directe link
    Temp 6h Neerslag Wind  
 05:40     20:39    Daglengte: 14:59 Morgen
02:00
20°
 
1
08:00
19°
 
3
14:00
18°
3.8 mm
5
warningclass
20:00
17°
7.9 mm
4
 05:42     20:37    Daglengte: 14:55 Maandag 02 Aug
02:00
14°
3.0 mm
4
08:00
15°
 
3
14:00
22°
 
4
20:00
20°
 
2
 05:43     20:36    Daglengte: 14:53 Dinsdag 03 Aug
02:00
14°
 
1
08:00
15°
 
1
14:00
25°
 
3
Locatie info
Region: Oberösterreich
Latitude: 48.2100°N
Longitude: 14.2908°E
278 masl
Postcode: 4052
Temp/Neerslag /Baro Onweer/Dauwpunt
    Temp Baro 1h Neerslag Dauwpunt Wind UV Bewolking  
 05:39     20:40    Daglengte: 15:01 Vandaag
23:00
20°
1010.6 hPa
14%
17.8°
1
Windvlaag: 2.2 m/s
70%
 05:40     20:39    Daglengte: 14:59 Morgen
00:00
20°
1010.4 hPa
14%
16.9°
1
Windvlaag: -0.1 m/s
77%
01:00
20°
1009.8 hPa
16%
16.4°
1
Windvlaag: -0.5 m/s
72%
02:00
20°
1009.5 hPa
82%
15.6°
1
Windvlaag: 0.6 m/s
74%
03:00
19°
1008.8 hPa
80%
15.4°
2
Windvlaag: -0.4 m/s
74%
04:00
18°
1008.0 hPa
46%
15.0°
3
Windvlaag: -0.5 m/s
85%
05:00
18°
1006.6 hPa
82%
15.1°
3
Windvlaag: -0.5 m/s
86%
06:00
18°
1005.4 hPa
82%
15.7°
4
Windvlaag: 0.5 m/s
86%
07:00
18°
1004.4 hPa
75%
16.1°
4
Windvlaag: 1.3 m/s
72%
08:00
19°
1003.9 hPa
76%
16.4°
3
Windvlaag: 1.5 m/s
85%
09:00
20°
1004.0 hPa
56%
16.4°
4
Windvlaag: -0.1 m/s
80%
10:00
20°
1004.3 hPa
70%
15.8°
5
Windvlaag: 1.3 m/s
80%
11:00
20°
1004.6 hPa
81%
15.7°
4
Windvlaag: 2.8 m/s
86%
12:00
19°
1005.3 hPa
81%
15.5°
6
Windvlaag: 2.3 m/s
84%
13:00
18°
1006.3 hPa 1.8 mm
82%
13.9°
6
Windvlaag: 1.6 m/s
85% warningclass
14:00
18°
1007.8 hPa 2.1 mm
82%
11.6°
5
Windvlaag: 1.3 m/s
85% warningclass
15:00
18°
1008.6 hPa 1.6 mm
82%
10.1°
5
Windvlaag: 1.2 m/s
84%
16:00
17°
1009.6 hPa 2.0 mm
82%
10.7°
6
Windvlaag: 1.4 m/s
78%
17:00
18°
1010.0 hPa 2.0 mm
81%
11.1°
6
Windvlaag: 1.9 m/s
79% warningclass
18:00
17°
1010.3 hPa 2.3 mm
82%
10.4°
5
Windvlaag: 2.2 m/s
77%
19:00
17°
1010.4 hPa
79%
10.0°
5
Windvlaag: 3.7 m/s
77%
20:00
17°
1010.8 hPa
25%
10.3°
4
Windvlaag: 4.1 m/s
73%
21:00
16°
1011.3 hPa
58%
10.9°
4
Windvlaag: 4.2 m/s
76%
22:00
16°
1011.6 hPa
30%
11.5°
3
Windvlaag: 4.5 m/s
86%
23:00
15°
1012.1 hPa
21%
12.0°
3
Windvlaag: 3.7 m/s
79%
 05:42     20:37    Daglengte: 14:55 Maandag 02 Aug
00:00
15°
1012.5 hPa
72%
12.7°
4
Windvlaag: 4.5 m/s
84%
01:00
15°
1012.9 hPa
79%
12.9°
4
Windvlaag: 5.3 m/s
86%
02:00
14°
1012.9 hPa 3.0 mm
82%
12.7°
4
Windvlaag: 5.6 m/s
81%
03:00
14°
1013.0 hPa
40%
12.7°
3
Windvlaag: 5.7 m/s
67%
04:00
14°
1013.2 hPa
75%
12.8°
3
Windvlaag: 4.7 m/s
80%
05:00
14°
1013.4 hPa
30%
13.0°
2
Windvlaag: 4.4 m/s
77%
06:00
14°
1013.9 hPa
17%
13.2°
2
Windvlaag: 3.5 m/s
57%
07:00
15°
1014.2 hPa
19%
13.3°
2
Windvlaag: 2.9 m/s
49%
08:00
15°
1014.5 hPa
14%
13.0°
3
Windvlaag: 2.7 m/s
32%
09:00
16°
1014.7 hPa
14%
13.0°
3
Windvlaag: 3.1 m/s
52%
10:00
18°
1014.9 hPa
14%
12.6°
4
Windvlaag: 2.1 m/s
40%
11:00
19°
1015.0 hPa
14%
12.1°
4
Windvlaag: 1.2 m/s
42%
12:00
20°
1014.7 hPa
17%
11.5°
4
Windvlaag: 0.8 m/s
15%
13:00
21°
1014.3 hPa
52%
10.9°
4
Windvlaag: 1.2 m/s
15%
14:00
22°
1013.8 hPa
22%
11.7°
4
Windvlaag: 1.1 m/s
15%
15:00
22°
1013.5 hPa
76%
12.1°
4
Windvlaag: 0.4 m/s
13%
16:00
23°
1013.1 hPa
73%
12.1°
4
Windvlaag: -0.1 m/s
7%
17:00
23°
1013.1 hPa
83%
11.1°
4
Windvlaag: 1.1 m/s
18%
18:00
22°
1013.0 hPa
73%
11.1°
4
Windvlaag: 0.9 m/s
14%
19:00
22°
1013.4 hPa
26%
11.5°
3
Windvlaag: 0.4 m/s
19%
20:00
20°
1013.7 hPa
21%
13.4°
2
Windvlaag: 0.1 m/s
11%
21:00
18°
1014.5 hPa
21%
12.5°
2
Windvlaag: -0.4 m/s
9%
22:00
17°
1015.1 hPa
21%
12.1°
2
Windvlaag: 0.2 m/s
1%
23:00
16°
1015.4 hPa
21%
11.8°
2
Windvlaag: 0.6 m/s
11%
 05:43     20:36    Daglengte: 14:53 Dinsdag 03 Aug
00:00
16°
1015.7 hPa
21%
11.1°
1
Windvlaag: 1.7 m/s
28%
01:00
15°
1016.0 hPa
21%
11.5°
2
Windvlaag: 2.6 m/s
24%
02:00
14°
1015.8 hPa
21%
11.1°
1
Windvlaag: 2.6 m/s
41%
03:00
14°
1015.8 hPa
21%
10.6°
1
Windvlaag: 1.6 m/s
54%
04:00
14°
1015.8 hPa
21%
10.0°
1
Windvlaag: 0.5 m/s
70%
05:00
13°
1015.7 hPa
21%
9.7°
1
Windvlaag: 1 m/s
69%
06:00
13°
1015.9 hPa
21%
9.9°
1
Windvlaag: 1 m/s
45%
07:00
13°
1016.1 hPa
21%
9.4°
1
Windvlaag: 0.2 m/s
41%
08:00
15°
1016.2 hPa
21%
9.3°
1
Windvlaag: 1.2 m/s
34%
09:00
17°
1016.0 hPa
21%
10.4°
2
Windvlaag: 0.3 m/s
32%
10:00
19°
1015.6 hPa
21%
11.5°
2
Windvlaag: 0.3 m/s
23%
11:00
21°
1015.1 hPa
21%
12.6°
2
Windvlaag: -0.1 m/s
13%
12:00
22°
1014.4 hPa
21%
13.3°
3
Windvlaag: -0.7 m/s
7%
13:00
24°
1013.4 hPa
22%
13.1°
3
Windvlaag: -0.8 m/s
8%
14:00
25°
1012.6 hPa
22%
12.7°
3
Windvlaag: -1.5 m/s
15%
15:00
25°
1012.4 hPa
21%
12.8°
2
Windvlaag: 3.7 m/s
60%
16:00
25°
1011.9 hPa
27%
13.2°
3
Windvlaag: 3.5 m/s
76%
17:00
25°
1011.5 hPa
34%
14.8°
3
Windvlaag: 3.6 m/s
83%
18:00
23°
1011.4 hPa
26%
18.7°
3
Windvlaag: 6.8 m/s
81%
19:00
23°
1011.3 hPa
21%
15.0°
2
Windvlaag: 4 m/s
80%
20:00
22°
1011.4 hPa
21%
17.0°
1
Windvlaag: 3.7 m/s
85%
Temp/Neerslag /Baro Onweer/Dauwpunt
    Temp Baro Neerslag Dauwpunt Wind Bewolking  
 05:39     20:40    Daglengte: 15:01 Vandaag
23:00
20°
1010.6 hPa   17.8°
1
70%
 05:40     20:39    Daglengte: 14:59 Morgen
02:00
20°
1009.5 hPa   15.6°
1
74%
05:00
18°
1006.6 hPa   15.1°
3
86%
08:00
19°
1003.9 hPa   16.4°
3
85%
11:00
20°
1004.6 hPa   15.7°
4
86%
14:00
18°
1007.8 hPa 3.8 mm 11.6°
5
85% warningclass
17:00
18°
1010.0 hPa 5.6 mm 11.1°
6
79% warningclass
20:00
17°
1010.8 hPa 2.3 mm 10.3°
4
73%
23:00
15°
1012.1 hPa   12.0°
3
79%
 05:42     20:37    Daglengte: 14:55 Maandag 02 Aug
02:00
14°
1012.9 hPa 3.0 mm 12.7°
4
81%
05:00
14°
1013.4 hPa   13.0°
2
77%
08:00
15°
1014.5 hPa   13.0°
3
32%
11:00
19°
1015.0 hPa   12.1°
4
42%
14:00
22°
1013.8 hPa   11.7°
4
15%
17:00
23°
1013.1 hPa   11.1°
4
18%
20:00
20°
1013.7 hPa   13.4°
2
11%
23:00
16°
1015.4 hPa   11.8°
2
11%
 05:43     20:36    Daglengte: 14:53 Dinsdag 03 Aug
02:00
14°
1015.8 hPa   11.1°
1
41%
05:00
13°
1015.7 hPa   9.7°
1
69%
08:00
15°
1016.2 hPa   9.3°
1
34%
11:00
21°
1015.1 hPa   12.6°
2
13%
14:00
25°
1012.6 hPa   12.7°
3
15%
17:00
25°
1011.5 hPa   14.8°
3
83%
20:00
22°
1011.4 hPa   17.0°
1
85%
23:00
15°
1015.5 hPa 33.5 mm 14.6°
7
1%
 05:44     20:34    Daglengte: 14:50 Woensdag 04 Aug
02:00
14°
1016.1 hPa 33.6 mm 13.0°
2
1%
05:00
12°
1015.4 hPa 33.6 mm 11.1°
1
0%
08:00
14°
1014.9 hPa 33.6 mm 12.7°
1
1%
11:00
19°
1013.7 hPa 33.6 mm 13.6°
2
1%
14:00
23°
1012.5 hPa 33.6 mm 13.3°
1
1%
17:00
20°
1012.3 hPa 33.6 mm 14.2°
3
1%
20:00
15°
1014.9 hPa 42.2 mm 14.9°
5
1%
23:00
14°
1016.6 hPa 53.5 mm 14.1°
2
1%
 05:46     20:33    Daglengte: 14:47 Donderdag 05 Aug
02:00
14°
1016.4 hPa 56.2 mm 13.9°
1
1%
05:00
14°
1015.4 hPa 59.7 mm 13.7°
3
1%
08:00
15°
1015.5 hPa 59.8 mm 13.5°
3
1%
11:00
17°
1014.9 hPa 60.3 mm 13.6°
4
1%
14:00
20°
1012.9 hPa 60.8 mm 12.5°
3
1%
17:00
21°
1011.1 hPa 60.8 mm 12.3°
3
1%
20:00
17°
1010.2 hPa 60.9 mm 12.8°
1
1%
23:00
15°
1010.7 hPa 60.9 mm 11.2°
1
1%
 05:47     20:31    Daglengte: 14:44 Vrijdag 06 Aug
02:00
14°
1010.5 hPa 60.9 mm 11.1°
1
1%
05:00
14°
1010.3 hPa 60.9 mm 11.5°
1
1%
08:00
14°
1011.0 hPa 60.9 mm 12.4°
2
1%
11:00
18°
1010.5 hPa 61.0 mm 12.8°
2
1%
14:00
21°
1009.3 hPa 61.5 mm 13.2°
6
1%
17:00
20°
1010.2 hPa 62.2 mm 14.8°
5
0%
20:00
16°
1011.5 hPa 63.4 mm 14.3°
3
0%
23:00
14°
1013.3 hPa 63.4 mm 13.1°
2
1%
 05:48     20:29    Daglengte: 14:41 Zaterdag 07 Aug
02:00
12°
1014.1 hPa 63.5 mm 11.5°
2
1%
05:00
11°
1014.6 hPa 63.5 mm 10.5°
1
0%
08:00
14°
1015.0 hPa 63.5 mm 12.2°
1
0%
11:00
19°
1014.6 hPa 63.5 mm 13.0°
2
0%
14:00
23°
1012.9 hPa 63.5 mm 12.8°
1
0%
17:00
24°
1012.3 hPa 63.5 mm 13.3°
1
0%
20:00
19°
1012.6 hPa 126.9 mm 14.6°
1
0%
 05:50     20:28    Daglengte: 14:38 Zondag 08 Aug
02:00
15°
1014.9 hPa 126.9 mm 12.1°
1
0%
08:00
17°
1014.4 hPa 126.9 mm 12.8°
2
0%
14:00
27°
1012.8 hPa 126.9 mm 16.6°
2
0%
20:00
23°
1013.5 hPa 126.9 mm 19.0°
2
0%
 05:51     20:26    Daglengte: 14:35 Maandag 09 Aug
02:00
19°
1017.6 hPa 127.6 mm 17.6°
6
0%
08:00
16°
1022.3 hPa 130.2 mm 14.6°
4
1%
14:00
19°
1023.8 hPa 137.8 mm 14.3°
4
1%
20:00
17°
1022.9 hPa 139.6 mm 14.0°
3
0%
 05:52     20:24    Daglengte: 14:32 Dinsdag 10 Aug
02:00
13°
1025.3 hPa 139.9 mm 11.9°
2
0%
08:00
15°
1025.2 hPa 139.9 mm 12.5°
2
0%
14:00
21°
1023.0 hPa 140.1 mm 11.8°
5
1%
20:00
19°
1020.1 hPa 1.8 mm 15.6°
1
44%
 05:54     20:23    Daglengte: 14:29 Woensdag 11 Aug
02:00
15°
1021.2 hPa 0.8 mm 13.5°
1
48%
08:00
17°
1020.7 hPa 0.2 mm 14.3°
1
46%
14:00
24°
1018.6 hPa 0.3 mm 14.9°
1
37%
20:00
19°
1018.8 hPa 1.5 mm 15.2°
1
49%
 05:55     20:21    Daglengte: 14:26 Donderdag 12 Aug
02:00
15°
1020.3 hPa 1.0 mm 13.2°
1
49%
08:00
16°
1020.2 hPa 1.6 mm 14.1°
1
51%
14:00
23°
1018.6 hPa 1.2 mm 15.2°
1
51%
20:00
19°
1018.9 hPa 1.5 mm 15.2°
0
48%
 05:57     20:19    Daglengte: 14:22 Vrijdag 13 Aug
02:00
15°
1020.1 hPa 0.6 mm 13.3°
1
52%
08:00
16°
1020.1 hPa 0.4 mm 13.9°
1
46%
14:00
23°
1018.7 hPa 0.5 mm 14.7°
1
50%
20:00
19°
1018.7 hPa 0.3 mm 15.4°
1
50%
 05:58     20:18    Daglengte: 14:20 Zaterdag 14 Aug
02:00
16°
1019.8 hPa 0.8 mm 13.6°
1
50%
08:00
17°
1019.7 hPa 0.7 mm 14.5°
1
52%
14:00
23°
1018.1 hPa 0.7 mm 15.1°
2
53%
20:00
19°
1018.1 hPa 0.8 mm 15.1°
1
47%
 05:59     20:16    Daglengte: 14:17 Zondag 15 Aug
02:00
15°
1019.0 hPa 0.3 mm 13.5°
1
47%
08:00
17°
1018.5 hPa 0.4 mm 14.2°
1
50%
14:00
23°
1016.7 hPa 0.7 mm 14.9°
2
48%
20:00
19°
1016.7 hPa 1.3 mm 15.2°
1
43%
  CAPE Lifted Index Hail Supercell Tornado SRH 3km CL BTM PRES CL TOP PRES Swiss DWD icon SMHI TS
 05:39     20:40    Daglengte: 15:01 Vandaag
23:00 256 J/kg -2.2 K 0 % 0 % 0 % 0 m²/s² 0 0 -0.91 3
 05:40     20:39    Daglengte: 14:59 Morgen
00:00 154 J/kg -1.8 K 0 % 0 % 0 % 0 m²/s² 0 0 -0.57 3
01:00 58 J/kg -2.7 K 0 % 0 % 0 % 0 m²/s² 0 0 -1.02 3
02:00 0 J/kg -1.8 K 0 % 0 % 0 % 0 m²/s² 0 0 -0.69 61
03:00 0 J/kg -1.0 K 0 % 0 % 0 % 0 m²/s² 0 0 -0.28 80
04:00 0 J/kg -0.9 K 0 % 0 % 0 % 0 m²/s² 0 0 -0.21 3
05:00 0 J/kg -0.4 K 0 % 0 % 0 % 0 m²/s² 0 0 -0.4 61
06:00 0 J/kg -2.1 K 0 % 0 % 0 % 0 m²/s² 0 0 -2.07 61
07:00 0 J/kg -3.5 K 0 % 0 % 0 % 0 m²/s² 0 0 -3.2 3
08:00 79 J/kg -4.1 K 0 % 0 % 0 % 0 m²/s² 0 0 -3.56 3
09:00 534 J/kg -5.2 K 0 % 0 % 0 % 0 m²/s² 0 0 -3.46 3
10:00 1441 J/kg -6.3 K 0 % 0 % 0 % 0 m²/s² 0 0 -4.56 3
11:00 1635 J/kg -6.3 K 0 % 0 % 0 % 0 m²/s² 0 0 -4.02 3
12:00 880 J/kg -4.2 K 0 % 0 % 0 % 0 m²/s² 0 0 -3.09 3
13:00 917 J/kg -4.2 K 0 % 0 % 0 % 0 m²/s² 0 0 -3.3 80
14:00 785 J/kg -4.0 K 0 % 0 % 0 % 0 m²/s² 0 0 -3.43 80
15:00 409 J/kg -2.4 K 0 % 0 % 0 % 0 m²/s² 0 0 -1.29 80
16:00 407 J/kg -2.1 K 0 % 0 % 0 % 0 m²/s² 0 0 -1.89 61
17:00 602 J/kg -2.2 K 0 % 0 % 0 % 0 m²/s² 0 0 -2.08 61
18:00 107 J/kg 0.0 K 0 % 0 % 0 % 0 m²/s² 0 0 0.12 61
19:00 75 J/kg 0.0 K 0 % 0 % 0 % 0 m²/s² 0 0 0.81 3
20:00 79 J/kg -0.2 K 0 % 0 % 0 % 0 m²/s² 0 0 0.91 3
21:00 20 J/kg 0.0 K 0 % 0 % 0 % 0 m²/s² 0 0 1.41 3
22:00 1 J/kg 0.7 K 0 % 0 % 0 % 0 m²/s² 0 0 2.41 3
23:00 24 J/kg 0.5 K 0 % 0 % 0 % 0 m²/s² 0 0 1.85 3
 05:42     20:37    Daglengte: 14:55 Maandag 02 Aug
00:00 67 J/kg 0.5 K 0 % 0 % 0 % 0 m²/s² 0 0 1.31 3
01:00 80 J/kg -0.1 K 0 % 0 % 0 % 0 m²/s² 0 0 -0.07 80
02:00 61 J/kg 0.4 K 0 % 0 % 0 % 0 m²/s² 0 0 0.49 61
03:00 10 J/kg 0.8 K 0 % 0 % 0 % 0 m²/s² 0 0 0.92 3
04:00 0 J/kg 0.0 K 0 % 0 % 0 % 0 m²/s² 0 0 0.12 3
05:00 0 J/kg 0.1 K 0 % 0 % 0 % 0 m²/s² 0 0 0.88 3
06:00 0 J/kg 0.6 K 0 % 0 % 0 % 0 m²/s² 0 0 1.44 3
07:00 0 J/kg -0.1 K 0 % 0 % 0 % 0 m²/s² 0 0 0.92 3
08:00 5 J/kg -0.1 K 0 % 0 % 0 % 0 m²/s² 0 0 2.21 2
09:00 76 J/kg -0.1 K 0 % 0 % 0 % 0 m²/s² 0 0 2.9 3
10:00 280 J/kg -1.1 K 0 % 0 % 0 % 0 m²/s² 0 0 1.72 3
11:00 450 J/kg -2.1 K 0 % 0 % 0 % 0 m²/s² 0 0 0.81 3
12:00 460 J/kg -2.2 K 0 % 0 % 0 % 0 m²/s² 0 0 0.47 2
13:00 449 J/kg -2.2 K 0 % 0 % 0 % 0 m²/s² 0 0 0.41 2
14:00 371 J/kg -2.0 K 0 % 0 % 0 % 0 m²/s² 0 0 0.37 2
15:00 419 J/kg -2.3 K 0 % 0 % 0 % 0 m²/s² 0 0 -0.05 1
16:00 425 J/kg -2.4 K 0 % 0 % 0 % 0 m²/s² 0 0 0.06 2
17:00 439 J/kg -2.2 K 0 % 0 % 0 % 0 m²/s² 0 0 0.65 1
18:00 396 J/kg -1.6 K 0 % 0 % 0 % 0 m²/s² 0 0 1.4 1
19:00 373 J/kg -1.7 K 0 % 0 % 0 % 0 m²/s² 0 0 1.15 1
20:00 370 J/kg -1.6 K 0 % 0 % 0 % 0 m²/s² 0 0 0.95 2
21:00 280 J/kg -1.4 K 0 % 0 % 0 % 0 m²/s² 0 0 0.7 0
22:00 219 J/kg -1.4 K 0 % 0 % 0 % 0 m²/s² 0 0 1.21 0
23:00 136 J/kg -1.4 K 0 % 0 % 0 % 0 m²/s² 0 0 1.3 0
 05:43     20:36    Daglengte: 14:53 Dinsdag 03 Aug
00:00 66 J/kg -1.0 K 0 % 0 % 0 % 0 m²/s² 0 0 1.19 0
01:00 4 J/kg -1.1 K 0 % 0 % 0 % 0 m²/s² 0 0 0.76 1
02:00 0 J/kg -1.5 K 0 % 0 % 0 % 0 m²/s² 0 0 -0.48 45
03:00 0 J/kg -1.5 K 0 % 0 % 0 % 0 m²/s² 0 0 0.24 45
04:00 0 J/kg -2.0 K 0 % 0 % 0 % 0 m²/s² 0 0 -0.08 45
05:00 0 J/kg -2.0 K 0 % 0 % 0 % 0 m²/s² 0 0 0.25 45
06:00 0 J/kg -2.6 K 0 % 0 % 0 % 0 m²/s² 0 0 -0.56 2
07:00 0 J/kg -2.6 K 0 % 0 % 0 % 0 m²/s² 0 0 -0.56 0
08:00 0 J/kg -2.5 K 0 % 0 % 0 % 0 m²/s² 0 0 -0.58 0
09:00 0 J/kg -2.1 K 0 % 0 % 0 % 0 m²/s² 0 0 -0.24 0
10:00 128 J/kg -1.9 K 0 % 0 % 0 % 0 m²/s² 0 0 0.02 0
11:00 390 J/kg -2.5 K 0 % 0 % 0 % 0 m²/s² 0 0 -0.76 0
12:00 554 J/kg -3.2 K 0 % 0 % 0 % 0 m²/s² 0 0 -1.58 0
13:00 527 J/kg -3.0 K 0 % 0 % 0 % 0 m²/s² 0 0 -1.44 0
14:00 554 J/kg -3.1 K 0 % 0 % 0 % 0 m²/s² 0 0 -1.36 1
15:00 614 J/kg -3.3 K 0 % 0 % 0 % 0 m²/s² 0 0 -1.44 3
16:00 762 J/kg -3.1 K 0 % 0 % 0 % 0 m²/s² 0 0 -1.69 3
17:00 973 J/kg -3.6 K 0 % 0 % 0 % 0 m²/s² 0 0 -3.42 3
18:00 264 J/kg -2.1 K 0 % 0 % 0 % 0 m²/s² 0 0 -1.38 3
19:00 71 J/kg -1.6 K 0 % 0 % 0 % 0 m²/s² 0 0 0.29 3
20:00 24 J/kg -0.2 K 0 % 0 % 0 % 0 m²/s² 0 0 1 3
Temp Baro Wind Neerslag
  EWN Forecast EWN WRFDA DWD ICON FMI HIRLAM MET Norway GFS
 05:39     20:40    Daglengte: 15:01 Vandaag
23:00 20.5° 1010.6 hPa 1.3 m/s 0.0 mm 18.1° 1009.8 hPa 1.6 m/s 5.7 mm 19.3° 1010.6 hPa 0.7 m/s -1.9 mm 21.8° 1010.7 hPa 1.4 m/s 0.0 mm 17.8° 1010.5 hPa 0.5 m/s
 05:40     20:39    Daglengte: 14:59 Morgen
02:00 19.6° 1009.5 hPa 1.3 m/s 0.0 mm 17.1° 1009.4 hPa 1.4 m/s 8.6 mm 18.2° 1010.1 hPa 0.5 m/s 0.5 mm 20.6° 1009.5 hPa 3.2 m/s 0.0 mm 17.3° 1008.7 hPa 1.3 m/s
05:00 18.2° 1006.6 hPa 3.4 m/s 0.0 mm 16.5° 1006.6 hPa 1.9 m/s 12.1 mm 18.3° 1006.9 hPa 1.2 m/s 1.0 mm 18.0° 1006.8 hPa 4.1 m/s 0.0 mm 16.9° 1007.4 hPa 2.3 m/s
08:00 18.8° 1003.9 hPa 3.1 m/s 0.0 mm 19.1° 1003.9 hPa 5.9 m/s 14.0 mm 18.7° 1005.2 hPa 2.8 m/s 2.2 mm 18.3° 1003.3 hPa 4.6 m/s 0.0 mm 16.0° 1006.5 hPa 3.3 m/s
11:00 19.6° 1004.6 hPa 3.9 m/s 0.0 mm 24.4° 1003.7 hPa 2.2 m/s 16.1 mm 18.8° 1004.7 hPa 3.5 m/s 0.0 mm 22.3° 1002.4 hPa 3.3 m/s 0.0 mm 15.4° 1008.9 hPa 4.1 m/s
14:00 18.1° 1007.8 hPa 5.3 m/s 3.8 mm 23.9° 1004.4 hPa 5.7 m/s 17.7 mm 17.5° 1007.4 hPa 4.5 m/s 2.6 mm 18.7° 1008.0 hPa 7.3 m/s 0.0 mm 15.8° 1010.5 hPa 3.3 m/s
17:00 17.7° 1010.0 hPa 5.7 m/s 5.6 mm 19.9° 1006.3 hPa 6.5 m/s 22.6 mm 16.1° 1010.6 hPa 6.3 m/s 1.8 mm 19.9° 1009.3 hPa 5.6 m/s 0.0 mm 14.9° 1010.9 hPa 4.3 m/s
20:00 16.5° 1010.8 hPa 4.2 m/s 2.3 mm 18.7° 1006.1 hPa 4.6 m/s 29.9 mm 15.9° 1012.0 hPa 4.7 m/s 0.6 mm 18.9° 1010.0 hPa 3.5 m/s 0.0 mm 14.1° 1011.6 hPa 4.0 m/s
23:00 15.5° 1012.1 hPa 3.4 m/s 0.0 mm 17.2° 1008.4 hPa 4.5 m/s 30.1 mm 14.8° 1013.5 hPa 4.1 m/s 0.0 mm 16.3° 1012.0 hPa 1.9 m/s 0.0 mm 13.8° 1013.2 hPa 2.4 m/s
 05:42     20:37    Daglengte: 14:55 Maandag 02 Aug
02:00 14.5° 1012.9 hPa 4.0 m/s 3.0 mm 15.4° 1010.4 hPa 5.9 m/s 31.0 mm 14.1° 1014.1 hPa 4.0 m/s 0.4 mm 14.6° 1012.0 hPa 1.1 m/s 0.0 mm 13.7° 1014.0 hPa 4.8 m/s
05:00 14.3° 1013.4 hPa 2.3 m/s 0.0 mm 14.0° 1011.4 hPa 2.5 m/s 36.0 mm 14.3° 1014.1 hPa 2.1 m/s 0.0 mm 14.6° 1012.6 hPa 0.7 m/s 0.0 mm 13.4° 1014.8 hPa 2.8 m/s
08:00 15.5° 1014.5 hPa 2.7 m/s 0.0 mm 15.8° 1013.0 hPa 5.7 m/s 39.8 mm 15.5° 1015.3 hPa 2.6 m/s 0.0 mm 16.0° 1013.2 hPa 1.4 m/s 0.0 mm 14.7° 1015.8 hPa 3.1 m/s
11:00 18.7° 1015.0 hPa 3.8 m/s 0.0 mm 19.7° 1013.8 hPa 5.0 m/s 39.8 mm 18.4° 1015.7 hPa 4.3 m/s 0.0 mm 20.5° 1013.6 hPa 3.4 m/s 0.0 mm 18.6° 1015.8 hPa 3.3 m/s
14:00 21.6° 1013.8 hPa 4.1 m/s 0.0 mm 22.8° 1013.2 hPa 5.6 m/s 39.8 mm 21.2° 1014.4 hPa 4.2 m/s 0.0 mm 22.5° 1013.3 hPa 4.8 m/s 0.0 mm 21.8° 1014.4 hPa 3.5 m/s
17:00 22.7° 1013.1 hPa 3.6 m/s 0.0 mm 23.4° 1012.5 hPa 4.7 m/s 39.8 mm 21.7° 1014.1 hPa 3.8 m/s 0.1 mm 22.1° 1014.2 hPa 3.0 m/s
20:00 20.0° 1013.7 hPa 2.4 m/s 0.0 mm 20.1° 1012.6 hPa 2.4 m/s 39.8 mm 19.5° 1014.8 hPa 2.5 m/s 0.0 mm 17.9° 1014.7 hPa 1.5 m/s
23:00 16.4° 1015.4 hPa 1.7 m/s 0.0 mm 16.7° 1014.9 hPa 2.5 m/s 39.8 mm 15.6° 1016.3 hPa 1.7 m/s 0.0 mm 14.0° 1016.8 hPa 0.7 m/s
 05:43     20:36    Daglengte: 14:53 Dinsdag 03 Aug
02:00 14.1° 1015.8 hPa 1.2 m/s 0.0 mm 14.2° 1015.0 hPa 2.2 m/s 39.8 mm 13.2° 1016.8 hPa 1.2 m/s 0.0 mm 12.8° 1017.6 hPa 0.6 m/s
05:00 12.9° 1015.7 hPa 1.0 m/s 0.0 mm 13.0° 1015.1 hPa 1.2 m/s 39.8 mm 11.5° 1017.1 hPa 1.0 m/s 0.0 mm 11.8° 1017.5 hPa 0.6 m/s
08:00 14.8° 1016.2 hPa 1.2 m/s 0.0 mm 16.7° 1016.0 hPa 2.0 m/s 39.8 mm 14.0° 1017.2 hPa 0.9 m/s 0.0 mm 15.1° 1017.5 hPa 1.0 m/s
11:00 20.6° 1015.1 hPa 2.4 m/s 0.0 mm 21.3° 1015.1 hPa 1.0 m/s 39.8 mm 20.6° 1015.8 hPa 2.5 m/s 0.0 mm 20.7° 1016.0 hPa 1.6 m/s
14:00 24.8° 1012.6 hPa 3.0 m/s 0.0 mm 24.7° 1012.9 hPa 0.7 m/s 39.8 mm 24.7° 1013.5 hPa 2.9 m/s 0.0 mm 24.1° 1013.0 hPa 2.2 m/s
17:00 25.0° 1011.5 hPa 3.0 m/s 0.0 mm 24.8° 1011.4 hPa 3.6 m/s 39.8 mm 25.0° 1011.6 hPa 2.9 m/s 0.0 mm 25.3° 1010.7 hPa 2.2 m/s
20:00 21.8° 1011.4 hPa 0.9 m/s 0.0 mm 20.2° 1011.3 hPa 1.1 m/s 43.4 mm 22.2° 1011.4 hPa 0.9 m/s 0.0 mm 20.1° 1009.6 hPa 1.9 m/s
23:00 15.3° 1015.5 hPa 6.9 m/s 33.5 mm 15.3° 1015.5 hPa 6.9 m/s 33.5 mm
 05:44     20:34    Daglengte: 14:50 Woensdag 04 Aug
02:00 14.3° 1016.1 hPa 2.3 m/s 33.6 mm 14.3° 1016.1 hPa 2.3 m/s 33.6 mm
05:00 11.9° 1015.4 hPa 0.7 m/s 33.6 mm 11.9° 1015.4 hPa 0.7 m/s 33.6 mm
08:00 14.4° 1014.9 hPa 1.5 m/s 33.6 mm 14.4° 1014.9 hPa 1.5 m/s 33.6 mm
11:00 18.8° 1013.7 hPa 2.1 m/s 33.6 mm 18.8° 1013.7 hPa 2.1 m/s 33.6 mm
14:00 23.1° 1012.5 hPa 0.5 m/s 33.6 mm 23.1° 1012.5 hPa 0.5 m/s 33.6 mm
17:00 19.9° 1012.3 hPa 3.3 m/s 33.6 mm 19.9° 1012.3 hPa 3.3 m/s 33.6 mm
20:00 15.4° 1014.9 hPa 4.7 m/s 42.2 mm 15.4° 1014.9 hPa 4.7 m/s 42.2 mm
23:00 14.3° 1016.6 hPa 1.8 m/s 53.5 mm 14.3° 1016.6 hPa 1.8 m/s 53.5 mm
 05:46     20:33    Daglengte: 14:47 Donderdag 05 Aug
02:00 14.3° 1016.4 hPa 1.4 m/s 56.2 mm 14.3° 1016.4 hPa 1.4 m/s 56.2 mm
05:00 14.4° 1015.4 hPa 3.0 m/s 59.7 mm 14.4° 1015.4 hPa 3.0 m/s 59.7 mm
08:00 14.5° 1015.5 hPa 3.4 m/s 59.8 mm 14.5° 1015.5 hPa 3.4 m/s 59.8 mm
11:00 17.0° 1014.9 hPa 3.7 m/s 60.3 mm 17.0° 1014.9 hPa 3.7 m/s 60.3 mm
14:00 19.9° 1012.9 hPa 2.9 m/s 60.8 mm 19.9° 1012.9 hPa 2.9 m/s 60.8 mm
17:00 20.8° 1011.1 hPa 2.5 m/s 60.8 mm 20.8° 1011.1 hPa 2.5 m/s 60.8 mm
20:00 17.2° 1010.2 hPa 1.0 m/s 60.9 mm 17.2° 1010.2 hPa 1.0 m/s 60.9 mm
23:00 14.6° 1010.7 hPa 1.0 m/s 60.9 mm 14.6° 1010.7 hPa 1.0 m/s 60.9 mm
 05:47     20:31    Daglengte: 14:44 Vrijdag 06 Aug
02:00 13.6° 1010.5 hPa 1.2 m/s 60.9 mm 13.6° 1010.5 hPa 1.2 m/s 60.9 mm
05:00 13.9° 1010.3 hPa 1.5 m/s 60.9 mm 13.9° 1010.3 hPa 1.5 m/s 60.9 mm
08:00 14.2° 1011.0 hPa 2.1 m/s 60.9 mm 14.2° 1011.0 hPa 2.1 m/s 60.9 mm
11:00 18.3° 1010.5 hPa 1.8 m/s 61.0 mm 18.3° 1010.5 hPa 1.8 m/s 61.0 mm
14:00 21.4° 1009.3 hPa 6.1 m/s 61.5 mm 21.4° 1009.3 hPa 6.1 m/s 61.5 mm
17:00 20.2° 1010.2 hPa 5.2 m/s 62.2 mm 20.2° 1010.2 hPa 5.2 m/s 62.2 mm
20:00 16.1° 1011.5 hPa 3.1 m/s 63.4 mm 16.1° 1011.5 hPa 3.1 m/s 63.4 mm
23:00 14.1° 1013.3 hPa 2.2 m/s 63.4 mm 14.1° 1013.3 hPa 2.2 m/s 63.4 mm
 05:48     20:29    Daglengte: 14:41 Zaterdag 07 Aug
02:00 12.3° 1014.1 hPa 1.9 m/s 63.5 mm 12.3° 1014.1 hPa 1.9 m/s 63.5 mm
05:00 11.4° 1014.6 hPa 1.2 m/s 63.5 mm 11.4° 1014.6 hPa 1.2 m/s 63.5 mm
08:00 14.5° 1015.0 hPa 1.5 m/s 63.5 mm 14.5° 1015.0 hPa 1.5 m/s 63.5 mm
11:00 19.4° 1014.6 hPa 2.3 m/s 63.5 mm 19.4° 1014.6 hPa 2.3 m/s 63.5 mm
14:00 22.8° 1012.9 hPa 1.2 m/s 63.5 mm 22.8° 1012.9 hPa 1.2 m/s 63.5 mm
17:00 23.7° 1012.3 hPa 0.7 m/s 63.5 mm 23.7° 1012.3 hPa 0.7 m/s 63.5 mm
20:00 19.2° 1012.6 hPa 0.9 m/s 63.5 mm 19.2° 1012.6 hPa 0.9 m/s 63.5 mm
 05:50     20:28    Daglengte: 14:38 Zondag 08 Aug
02:00 14.8° 1014.9 hPa 0.9 m/s 63.5 mm 14.8° 1014.9 hPa 0.9 m/s 63.5 mm
08:00 17.0° 1014.4 hPa 2.0 m/s 63.5 mm 17.0° 1014.4 hPa 2.0 m/s 63.5 mm
14:00 27.2° 1012.8 hPa 2.1 m/s 63.5 mm 27.2° 1012.8 hPa 2.1 m/s 63.5 mm
20:00 23.0° 1013.5 hPa 2.2 m/s 63.5 mm 23.0° 1013.5 hPa 2.2 m/s 63.5 mm
 05:51     20:26    Daglengte: 14:35 Maandag 09 Aug
02:00 18.8° 1017.6 hPa 5.9 m/s 64.1 mm 18.8° 1017.6 hPa 5.9 m/s 64.1 mm
08:00 16.1° 1022.3 hPa 4.5 m/s 65.3 mm 16.1° 1022.3 hPa 4.5 m/s 65.3 mm
14:00 18.8° 1023.8 hPa 3.5 m/s 69.5 mm 18.8° 1023.8 hPa 3.5 m/s 69.5 mm
20:00 17.4° 1022.9 hPa 3.0 m/s 70.0 mm 17.4° 1022.9 hPa 3.0 m/s 70.0 mm
 05:52     20:24    Daglengte: 14:32 Dinsdag 10 Aug
02:00 12.9° 1025.3 hPa 1.9 m/s 70.0 mm 12.9° 1025.3 hPa 1.9 m/s 70.0 mm
08:00 14.7° 1025.2 hPa 1.9 m/s 70.0 mm 14.7° 1025.2 hPa 1.9 m/s 70.0 mm
14:00 21.4° 1023.0 hPa 4.8 m/s 70.1 mm 21.4° 1023.0 hPa 4.8 m/s 70.1 mm
20:00 19.1° 1020.1 hPa 1.1 m/s 1.8 mm
 05:54     20:23    Daglengte: 14:29 Woensdag 11 Aug
02:00 15.4° 1021.2 hPa 0.8 m/s 0.8 mm
08:00 16.9° 1020.7 hPa 0.7 m/s 0.2 mm
14:00 23.8° 1018.6 hPa 1.2 m/s 0.3 mm
20:00 18.9° 1018.8 hPa 1.0 m/s 1.5 mm
 05:55     20:21    Daglengte: 14:26 Donderdag 12 Aug
02:00 15.0° 1020.3 hPa 0.8 m/s 1.0 mm
08:00 16.4° 1020.2 hPa 0.5 m/s 1.6 mm
14:00 23.2° 1018.6 hPa 0.8 m/s 1.2 mm
20:00 19.1° 1018.9 hPa 0.3 m/s 1.5 mm
 05:57     20:19    Daglengte: 14:22 Vrijdag 13 Aug
02:00 15.2° 1020.1 hPa 0.6 m/s 0.6 mm
08:00 16.5° 1020.1 hPa 0.9 m/s 0.4 mm
14:00 23.4° 1018.7 hPa 0.9 m/s 0.5 mm
20:00 19.1° 1018.7 hPa 0.8 m/s 0.3 mm
 05:58     20:18    Daglengte: 14:20 Zaterdag 14 Aug
02:00 15.6° 1019.8 hPa 1.2 m/s 0.8 mm
08:00 16.8° 1019.7 hPa 1.4 m/s 0.7 mm
14:00 23.2° 1018.1 hPa 2.0 m/s 0.7 mm
20:00 18.8° 1018.1 hPa 1.0 m/s 0.8 mm
 05:59     20:16    Daglengte: 14:17 Zondag 15 Aug
02:00 15.5° 1019.0 hPa 1.0 m/s 0.3 mm
08:00 16.9° 1018.5 hPa 1.0 m/s 0.4 mm
14:00 23.5° 1016.7 hPa 2.0 m/s 0.7 mm
20:00 18.9° 1016.7 hPa 1.3 m/s 1.3 mm
FMI Hirlam - 7.5 km EWN WRFDA - 12 km DWD ICON - 7 km GFS - 25 km Basiskaart






























































Updatetijd (Europe/Amsterdam) Resolutie Lengte Stap
FMI Hirlam 19:00, 01:00, 07:00, 13:00 7.5 km 49h 1h
EWN WRFDA 22:15, 04:15, 10:15, 16:15 12 km 73h 1h
DWD ICON 18:15, 00:15, 06:15, 12:15 7 km 75h 1h
GFS 20:15, 02:15, 08:15, 14:15 25 km 237h 3h
30+ mm
25-30 mm
20-25 mm
15-20 mm
10-15 mm
6-10 mm
4-6 mm
2-4 mm
1-2 mm
0.5-1 mm
0.2-0.5 mm
0.1-0.2 mm
30+ mm
25-30 mm
20-25 mm
15-20 mm
10-15 mm
6-10 mm
4-6 mm
2-4 mm
1-2 mm
0.5-1 mm
0.2-0.5 mm
0.1-0.2 mm
Sneeuwval
Natte sneeuw
Hagel
Vorst
30+ mm
25-30 mm
20-25 mm
15-20 mm
10-15 mm
6-10 mm
4-6 mm
2-4 mm
1-2 mm
0.5-1 mm
0.2-0.5 mm
0.1-0.2 mm
Sneeuwval
Natte sneeuw
Hagel
Vorst
Onweer
50 mm
40 mm
30 mm
26 mm
22 mm
18 mm
14 mm
10 mm
9 mm
8 mm
7 mm
6 mm
5 mm
4.5 mm
4 mm
3.5 mm
3 mm
2.5 mm
2 mm
1.5 mm
1 mm
0.8 mm
0.6 mm
0.4 mm
0.2 mm
0.05 mm
35°
30°
25°
20°
15°
10°
-5°
-10°
-15°
-20°
-25°
-30°
-35°
33> m/s
29 m/s
25 m/s
21 m/s
17 m/s
14 m/s
11 m/s
8 m/s
5 m/s
3 m/s
0 m/s
2600 J/kg
2400 J/kg
2200 J/kg
2000 J/kg
1800 J/kg
1600 J/kg
1400 J/kg
1200 J/kg
1000 J/kg
800 J/kg
600 J/kg
400 J/kg
200 J/kg
70 dBZ
65 dBZ
60 dBZ
55 dBZ
50 dBZ
45 dBZ
40 dBZ
35 dBZ
30 dBZ
25 dBZ
20 dBZ
15 dBZ
10 dBZ
5 dBZ
-1 K
-2 K
-3 K
-4 K
-5 K
-6 K
-7 K
-8 K
-9 K
950 m²/s²
900 m²/s²
850 m²/s²
800 m²/s²
750 m²/s²
700 m²/s²
650 m²/s²
600 m²/s²
550 m²/s²
500 m²/s²
450 m²/s²
400 m²/s²
350 m²/s²
300 m²/s²
250 m²/s²
200 m²/s²
150 m²/s²
100 m²/s²
46 m/s
44 m/s
42 m/s
40 m/s
38 m/s
36 m/s
34 m/s
32 m/s
30 m/s
28 m/s
26 m/s
24 m/s
22 m/s
20 m/s
16 m/s
12 m/s
8 m/s
4 m/s
30 m/s
28 m/s
26 m/s
24 m/s
22 m/s
20 m/s
18 m/s
16 m/s
14 m/s
12 m/s
10 m/s
8 m/s
6 m/s
4 m/s
2 m/s
3.0
2.8
2.6
2.4
2.2
2.0
1.8
1.6
1.4
1.2
1.0
0.8
0.6
0.4
0.2
15
14
13
12
11
10
9
8
7
6
5
4
3
2
1
90%
80%
70%
60%
50%
40%
30%
20%
10%
42
40
38
36
34
32
30
28
26
24
22
20
18
16
14
12
90+ cm
80-90 cm
70-80 cm
60-70 cm
50-60 cm
40-50 cm
30-40 cm
20-30 cm
10-20 cm
1-10 cm
Sneeuwval
Natte sneeuw
Regen
>120 mm
115 mm
110 mm
105 mm
100 mm
95 mm
90 mm
85 mm
80 mm
75 mm
70 mm
65 mm
60 mm
55 mm
50 mm
45 mm
45 mm
40 mm
35 mm
30 mm
25 mm
20 mm
15 mm
10 mm
5 mm
0.1 mm
960 hPa
880 hPa
800 hPa
720 hPa
640 hPa
560 hPa
584 gpdm
568 gpdm
552 gpdm
536 gpdm
520 gpdm
504 gpdm
488 gpdm
Extreem zwaar Noodweer Kans op onweer
15% 15% 5% 50% 15%

Dag




Kaart






<
35°
30°
25°
20°
15°